Wind_Speed
17 19 22 25 26 27 28 28 29 31 32 34 35 35 35 35 36 37 37 38 38 38 40 40 40 40 40 40 40 40 40 40 39 39 39 40 40 41 42 42 42 43 43 43
14 16 18 21 24 25 26 27 27 29 31 33 34 34 33 35 35 37 37 37 38 39 39 40 42 42 41 41 41 41 41 42 42 42 42 43 43 43 44 45 45 46 46 45
11 12 15 17 20 23 24 24 25 25 27 30 32 33 32 32 34 35 37 37 38 39 40 41 41 42 42 43 43 44 43 44 44 45 45 45 45 44 44 46 47 47 47 47
8 9 12 14 16 20 22 21 22 23 24 27 28 29 30 30 31 33 34 35 35 36 37 39 40 41 41 42 43 43 43 44 45 45 45 46 46 46 45 46 46 46 47 48
6 7 8 12 15 17 20 20 20 20 22 24 25 26 26 28 29 30 32 32 33 33 34 36 38 39 39 40 41 42 43 44 44 44 45 46 47 46 46 45 46 46 47 48
4 5 6 8 11 14 17 18 19 20 21 23 24 25 24 25 26 28 29 30 32 34 34 35 37 39 40 41 42 43 44 45 45 45 45 45 46 46 45 45 45 45 45 46
4 6 6 7 8 11 15 15 16 18 19 21 21 23 24 24 25 26 27 28 30 32 34 34 35 37 39 40 42 43 44 44 45 44 44 45 45 45 45 45 44 44 44 44
5 5 6 7 7 9 11 12 14 16 17 17 19 20 22 24 24 26 27 27 28 29 32 33 34 35 37 39 40 41 42 43 44 43 44 44 44 44 45 46 45 45 45 45
6 6 7 8 7 7 8 9 10 13 15 15 17 18 19 22 23 25 26 27 28 29 30 31 32 33 35 37 38 38 40 41 42 43 43 43 44 45 46 46 46 47 47 46
6 6 7 7 7 8 9 9 10 10 13 15 14 15 17 19 22 24 26 27 27 27 28 29 30 31 32 33 35 37 37 38 38 39 40 40 41 42 43 43 44 45 45 45
5 6 6 6 7 8 10 11 11 12 13 15 16 15 17 18 20 22 24 25 25 25 26 27 29 30 31 33 33 35 36 37 37 38 38 38 39 40 41 42 43 43 44 45
6 7 7 7 8 9 10 11 12 12 13 15 16 16 17 17 18 20 21 22 23 25 25 26 27 28 30 31 33 34 35 37 37 38 38 39 40 41 42 42 43 44 45 45
7 8 8 8 9 9 9 10 12 13 14 15 16 16 17 18 17 18 19 20 22 23 24 25 26 27 28 30 32 33 35 36 37 37 39 40 41 41 41 42 42 43 44 45
8 8 9 9 10 10 10 10 10 12 13 14 15 16 16 18 18 18 18 19 20 21 22 23 24 25 26 28 30 31 32 34 35 36 38 38 39 39 40 41 41 42 43 44
9 8 9 10 11 11 11 12 12 12 13 15 15 15 16 17 18 19 19 19 20 20 21 22 23 24 25 26 27 29 30 32 33 35 35 36 37 38 39 39 40 41 41 42
9 8 9 9 10 11 12 11 12 13 14 15 16 16 17 18 19 19 20 21 21 21 21 22 23 24 25 26 27 28 29 30 31 32 33 34 35 36 37 37 38 40 41 42
10 10 10 10 10 11 11 12 13 14 15 16 16 16 16 17 18 19 20 21 22 23 23 23 23 23 24 25 26 28 29 29 30 31 31 32 34 35 36 37 38 39 40 41
11 11 11 11 11 11 11 11 12 13 13 15 15 15 16 16 17 18 19 20 22 22 23 23 24 25 26 26 28 28 29 29 30 31 32 33 34 35 36 37 38 39 40 41
13 13 13 13 13 12 11 13 14 15 15 15 16 16 16 17 17 18 20 20 22 22 22 22 23 25 26 27 28 28 29 30 30 31 32 33 34 35 36 37 38 39 40 41
14 14 14 14 14 14 13 13 14 15 15 17 17 17 18 18 18 19 21 21 21 21 22 23 24 25 27 28 29 30 30 31 31 31 32 33 34 35 35 37 38 39 40 42
16 16 15 15 15 14 14 15 15 16 16 17 18 18 19 19 20 21 22 22 22 22 23 24 25 26 27 28 29 30 31 31 32 32 32 33 34 35 36 37 39 40 41 41
17 17 17 17 17 16 16 17 17 18 18 18 19 19 19 19 21 22 23 24 24 24 24 25 27 28 28 29 30 31 32 32 32 33 34 35 36 36 37 38 39 39 40 40
19 19 19 19 18 18 18 18 19 19 20 20 21 21 20 21 21 22 23 24 25 25 26 27 29 30 30 31 32 33 34 34 35 35 35 36 37 38 37 37 37 38 39 39
22 22 22 21 19 19 19 19 20 21 21 21 22 22 22 22 22 23 24 24 25 26 27 28 29 30 31 32 32 33 34 35 36 35 35 36 36 36 36 36 37 38 39 39
23 23 23 22 21 21 20 21 21 22 22 22 22 23 23 23 23 24 25 25 26 27 28 29 30 30 31 32 32 33 34 34 34 34 34 35 35 36 36 37 37 38 39 39
24 24 24 23 23 22 22 22 22 23 23 23 24 24 24 24 24 25 25 27 28 29 30 30 31 31 32 32 32 32 33 33 34 34 35 35 36 36 37 37 37 38 38 39
Wind_Direction
236 234 233 231 231 230 228 230 232 233 234 235 236 239 240 242 244 246 247 249 249 250 252 253 254 256 258 258 259 259 260 262 263 264 266 268 269 270 271 273 274 275 276 276
236 233 232 231 230 230 229 231 234 236 235 237 238 239 240 243 246 248 248 251 252 252 253 255 255 256 258 259 260 259 261 262 264 265 266 267 269 270 271 273 274 276 276 277
239 233 230 229 229 229 227 230 233 235 236 237 239 241 243 245 248 249 250 252 253 254 254 256 256 257 259 260 261 262 263 264 265 266 267 269 271 271 272 273 273 273 275 276
237 233 233 230 229 228 227 227 232 236 237 237 239 243 243 245 249 250 252 253 253 254 255 256 257 257 258 260 262 264 265 266 267 267 268 269 269 271 272 273 274 274 275 276
239 238 238 233 233 232 230 231 234 238 240 239 240 246 246 248 250 251 254 255 256 258 258 257 257 258 259 261 262 265 267 268 269 269 269 269 270 272 273 274 275 276 277 278
254 250 244 239 237 237 232 235 238 242 244 244 245 250 250 252 253 255 257 259 260 260 262 262 259 260 261 263 265 266 267 267 267 268 269 270 271 272 273 274 276 277 278 278
267 259 254 249 243 240 236 240 244 245 247 251 251 256 256 256 257 258 260 262 264 265 265 265 264 263 263 265 265 265 266 267 268 268 269 271 271 273 274 276 277 278 279 280
280 274 269 258 252 249 240 247 254 254 254 254 256 259 260 259 260 262 263 265 267 267 267 266 267 266 265 266 267 268 268 268 269 270 271 271 272 273 274 276 277 277 279 281
291 278 275 265 259 250 249 254 262 265 260 261 258 261 262 262 263 265 266 267 270 269 270 269 269 270 269 269 269 270 271 271 272 273 273 274 274 275 276 277 277 278 279 282
289 281 278 269 265 266 261 265 266 273 271 269 267 265 268 268 268 269 270 270 270 271 272 272 272 273 273 272 273 273 274 275 275 275 275 276 277 277 278 279 280 280 281 282
295 290 287 278 271 269 265 268 269 273 280 276 275 275 274 276 276 277 276 273 273 273 272 273 273 274 275 277 278 278 277 277 277 277 277 278 278 279 281 281 281 282 283 284
293 280 282 283 284 275 273 274 274 275 279 281 281 280 280 282 281 282 281 279 276 275 274 274 275 276 277 279 280 281 281 279 278 277 276 277 278 280 281 281 282 283 284 285
302 284 283 284 284 280 278 276 276 280 281 281 282 282 283 284 283 286 286 285 281 279 278 277 278 279 279 281 282 282 281 280 279 277 277 278 279 279 280 281 282 283 285 287
310 295 289 290 289 286 286 283 280 282 284 284 284 284 283 284 284 289 292 292 291 287 284 284 283 283 283 284 284 285 284 283 281 279 279 280 280 281 281 282 284 286 288 290
316 299 292 290 290 288 287 288 287 287 288 288 288 286 286 288 290 292 294 297 298 296 293 290 288 288 287 288 288 289 289 288 286 283 282 282 283 283 284 286 288 290 292 293
324 309 303 299 295 292 292 292 290 288 289 291 291 292 290 292 295 296 297 299 301 301 299 297 294 293 292 292 293 294 293 293 292 290 288 286 287 288 290 291 293 294 295 295
323 320 308 305 302 300 300 298 295 294 294 295 295 296 294 294 297 299 301 302 303 303 302 301 299 299 298 298 298 298 297 296 296 296 295 294 293 293 294 295 297 297 298 298
318 319 318 314 307 304 308 306 303 302 302 300 298 299 298 297 297 300 303 305 306 306 304 302 301 301 300 300 301 302 302 302 302 301 298 296 296 295 295 296 297 298 299 300
309 310 311 311 312 313 312 309 304 303 303 301 298 298 299 300 300 301 302 305 305 305 304 303 302 302 302 302 302 303 305 305 305 303 300 298 297 297 297 297 298 299 300 301
302 303 305 308 310 313 315 312 310 310 308 303 300 299 298 299 300 302 303 304 305 306 305 304 304 304 304 304 305 305 305 306 306 305 302 300 299 298 299 300 302 303 302 303
296 296 298 301 304 310 311 310 311 312 313 311 306 302 298 298 301 303 305 306 306 306 306 306 306 306 306 306 306 307 307 306 307 307 306 305 303 302 302 303 304 305 305 306
290 292 294 296 299 304 303 304 307 308 309 310 309 306 303 302 302 303 304 306 307 307 308 309 309 309 309 309 308 308 307 307 307 307 306 306 305 304 304 305 305 306 307 308
285 287 289 292 296 297 298 300 303 304 305 307 308 306 303 303 304 305 306 306 306 307 308 309 310 309 308 308 308 307 307 307 307 308 307 307 308 308 307 308 308 309 309 309
282 284 286 287 288 290 294 297 298 299 303 307 309 309 306 303 303 304 306 307 308 310 310 311 312 310 309 308 308 308 308 308 308 309 309 310 311 310 310 310 311 310 310 311
279 282 284 284 285 287 289 292 295 297 301 305 307 308 307 306 304 304 304 306 306 308 310 312 312 312 310 309 309 308 309 310 311 311 312 313 313 312 312 312 312 312 312 312
279 281 282 284 285 285 286 288 291 295 299 301 304 306 308 306 306 306 305 305 306 307 308 310 311 311 312 311 310 311 311 311 311 312 312 313 313 313 313 313 313 314 314 313
Height
5686 5689 5691 5695 5699 5703 5707 5710 5714 5718 5721 5725 5729 5732 5736 5739 5742 5745 5748 5750 5753 5755 5756 5758 5760 5762 5763 5765 5766 5767 5768 5769 5769 5770 5770 5770 5769 5769 5768 5768 5767 5766 5765 5764
5684 5685 5688 5691 5694 5698 5702 5706 5709 5712 5716 5719 5723 5726 5730 5732 5735 5738 5740 5743 5745 5746 5748 5750 5751 5753 5754 5756 5757 5759 5759 5760 5760 5761 5761 5761 5760 5759 5759 5758 5757 5756 5755 5754
5682 5684 5685 5687 5690 5693 5697 5701 5705 5708 5711 5713 5717 5721 5724 5726 5728 5730 5732 5734 5736 5738 5739 5741 5742 5744 5745 5747 5748 5749 5750 5751 5751 5751 5751 5751 5750 5750 5749 5748 5747 5746 5744 5743
5680 5681 5683 5684 5687 5689 5693 5697 5700 5703 5706 5708 5712 5715 5718 5720 5722 5723 5725 5727 5728 5729 5730 5732 5733 5735 5736 5737 5738 5739 5740 5741 5741 5741 5741 5741 5740 5739 5738 5737 5736 5734 5733 5732
5680 5681 5681 5683 5684 5686 5690 5693 5696 5699 5701 5704 5706 5709 5712 5714 5716 5717 5719 5720 5721 5722 5722 5723 5725 5726 5727 5728 5729 5730 5730 5731 5731 5731 5731 5730 5729 5729 5728 5727 5725 5724 5722 5721
5680 5680 5681 5682 5682 5684 5687 5690 5693 5695 5697 5700 5702 5704 5706 5708 5710 5711 5712 5713 5714 5714 5714 5715 5716 5717 5718 5719 5719 5720 5720 5720 5720 5721 5720 5720 5719 5719 5718 5717 5715 5714 5712 5710
5680 5680 5680 5681 5682 5683 5685 5688 5690 5691 5693 5695 5697 5699 5701 5703 5704 5705 5706 5707 5707 5707 5707 5708 5708 5708 5709 5709 5710 5710 5710 5710 5710 5710 5710 5709 5709 5708 5707 5706 5705 5704 5702 5699
5680 5680 5680 5680 5681 5682 5684 5686 5688 5689 5690 5692 5693 5695 5697 5697 5698 5699 5700 5700 5700 5700 5700 5700 5700 5700 5700 5700 5700 5700 5700 5700 5700 5699 5699 5698 5698 5697 5696 5695 5694 5692 5691 5689
5679 5680 5679 5679 5680 5682 5682 5684 5685 5687 5687 5688 5689 5691 5692 5692 5693 5693 5693 5693 5693 5693 5693 5692 5692 5691 5691 5690 5690 5690 5690 5690 5689 5689 5688 5687 5687 5686 5685 5684 5682 5681 5679 5677
5679 5680 5680 5680 5680 5681 5682 5682 5683 5684 5684 5684 5686 5686 5687 5687 5687 5687 5687 5687 5686 5686 5686 5685 5684 5683 5683 5682 5681 5681 5680 5680 5679 5679 5678 5677 5676 5675 5674 5672 5671 5669 5667 5666
5679 5680 5680 5680 5679 5680 5681 5681 5681 5681 5681 5682 5682 5685 5683 5683 5682 5682 5681 5680 5680 5679 5679 5678 5677 5676 5676 5675 5673 5673 5672 5671 5670 5669 5668 5667 5666 5665 5663 5662 5660 5659 5657 5654
5679 5680 5679 5679 5679 5679 5679 5679 5679 5680 5680 5679 5679 5683 5679 5678 5677 5677 5676 5675 5674 5673 5672 5671 5670 5669 5668 5667 5666 5665 5663 5662 5661 5660 5659 5658 5656 5655 5653 5652 5650 5648 5646 5643
5679 5679 5679 5679 5680 5679 5677 5677 5677 5677 5677 5676 5676 5680 5675 5674 5673 5672 5671 5670 5668 5667 5666 5665 5664 5662 5661 5660 5658 5656 5655 5653 5652 5650 5649 5648 5647 5645 5643 5641 5640 5637 5635 5633
5680 5679 5679 5678 5676 5676 5675 5675 5675 5674 5674 5673 5674 5674 5673 5671 5669 5669 5667 5665 5664 5662 5661 5659 5658 5656 5654 5653 5651 5649 5647 5644 5643 5641 5640 5638 5637 5635 5634 5632 5630 5627 5625 5622
5679 5678 5677 5676 5675 5674 5674 5673 5673 5672 5671 5671 5671 5670 5669 5667 5666 5665 5663 5661 5659 5657 5656 5654 5652 5650 5648 5646 5644 5642 5639 5637 5634 5632 5631 5629 5628 5626 5624 5622 5620 5617 5614 5611
5679 5678 5676 5676 5674 5672 5672 5672 5671 5670 5669 5668 5667 5667 5665 5664 5662 5661 5659 5657 5655 5653 5651 5649 5647 5645 5643 5640 5638 5636 5633 5630 5627 5624 5622 5621 5619 5617 5615 5613 5610 5607 5604 5600
5678 5677 5676 5675 5673 5671 5671 5670 5669 5668 5667 5665 5664 5664 5662 5660 5659 5657 5655 5653 5651 5649 5647 5644 5642 5639 5637 5635 5632 5629 5626 5623 5620 5618 5615 5613 5611 5609 5607 5604 5601 5598 5594 5590
5677 5676 5674 5673 5672 5671 5672 5668 5667 5665 5664 5662 5661 5660 5658 5657 5655 5653 5652 5650 5647 5645 5642 5640 5637 5635 5632 5630 5627 5624 5620 5617 5614 5611 5608 5605 5603 5600 5598 5595 5592 5589 5585 5581
5676 5674 5672 5671 5669 5669 5669 5666 5664 5662 5662 5660 5658 5656 5655 5653 5651 5650 5648 5645 5643 5640 5637 5635 5632 5630 5627 5624 5621 5618 5614 5611 5607 5604 5600 5597 5595 5592 5589 5586 5583 5579 5575 5571
5673 5672 5671 5669 5667 5666 5668 5664 5661 5661 5659 5657 5654 5652 5651 5649 5648 5647 5643 5641 5638 5635 5633 5630 5627 5624 5621 5618 5615 5611 5608 5604 5600 5597 5593 5589 5586 5584 5581 5577 5574 5570 5565 5561
5670 5669 5668 5666 5664 5664 5664 5661 5659 5658 5657 5654 5651 5649 5647 5645 5644 5642 5639 5636 5633 5631 5628 5625 5622 5619 5615 5612 5608 5605 5601 5597 5594 5590 5586 5582 5579 5575 5572 5568 5564 5560 5556 5551
5666 5665 5664 5662 5661 5663 5659 5657 5656 5655 5652 5650 5647 5645 5643 5641 5639 5637 5634 5631 5629 5626 5623 5620 5617 5613 5610 5606 5602 5599 5595 5591 5587 5583 5579 5575 5571 5567 5564 5560 5555 5551 5546 5542
5662 5662 5660 5660 5660 5658 5655 5653 5652 5650 5648 5645 5643 5641 5639 5637 5634 5632 5630 5627 5624 5621 5618 5614 5611 5607 5604 5600 5596 5593 5589 5584 5581 5576 5572 5568 5563 5559 5555 5551 5547 5542 5537 5532
5657 5656 5655 5654 5654 5653 5651 5649 5647 5645 5643 5641 5639 5637 5634 5632 5630 5627 5625 5622 5619 5616 5613 5609 5605 5601 5598 5594 5590 5586 5582 5578 5574 5569 5565 5560 5556 5551 5547 5542 5538 5533 5528 5523
5651 5650 5648 5648 5648 5647 5646 5644 5642 5640 5638 5636 5634 5632 5629 5626 5624 5622 5619 5616 5613 5610 5607 5603 5599 5595 5591 5587 5583 5579 5575 5571 5566 5562 5558 5553 5549 5544 5539 5534 5529 5524 5519 5513
5645 5644 5643 5642 5642 5641 5640 5639 5637 5635 5633 5631 5629 5626 5624 5621 5618 5616 5613 5610 5607 5604 5601 5597 5593 5589 5585 5580 5576 5572 5568 5564 5560 5555 5551 5546 5541 5536 5531 5526 5521 5514 5509 5504